Weather in Kislokan

Russia / Krasnoyarsk Krai     63°35′21″N   103°57′16″E
temp.,
°C
wind,
m/s
gust,
m/s
humid.,
%
clouds,
%
prec.,
mm/h
press.,
hPa
HPBL,
m
4 july, mon
mon401:00+12ssw239488 0.9 99773
04:00+12sw412880 0.0 997496
07:00+16wsw510714 0.0 999841
10:00+18sw68555 0.3 10001608
13:00+19wsw6851100 0.3 10001996
16:00+18wsw4756100 0.0 10021523
19:00+18wsw37642 0.0 10031045
22:00+13sw22855 0.1 100427
5 july, tue
tue501:00+11sw22922 0.1 100521
04:00+11sw11893 0.0 100634
07:00+16sw23665 0.0 1006617
10:00+19wsw355116 0.1 10051648
13:00+20sw344944 0.4 10051936
16:00+19wsw355792 0.0 1005902
19:00+18wsw24655 0.3 1006514
22:00+12wsw11855 0.5 100610
6 july, wed
wed601:00+11wsw118914 0.5 100610
04:00+12sw118689 0.0 100613
07:00+15wsw117899 0.0 1006171
10:00+19w24485 0.0 10051578
13:00+20wsw354599 0.0 10051857
16:00+20wnw354742 0.0 10051681
19:00+18nnw236096 0.0 1005147
22:00+13w1171100 0.0 100611
7 july, thu
thu701:00+12w11763 0.0 100610
04:00+12wsw11785 0.0 100612
07:00+17wnw235913 0.0 1006556
10:00+17nw345282 0.1 1006878
13:00+20nw454070 0.1 10052195
16:00+18nw364652 0.0 10051249
19:00+16nw3659100 0.0 1005415
22:00+11w22795 0.0 100521
8 july, fri
fri801:00+11w22775 0.0 100434
04:00+10nw258934 0.0 1006152
07:00+13nnw367465 0.0 1006523
10:00+16n455637 0.0 10061126
13:00+16nnw565439 0.0 10071133
16:00+17n364512 0.0 10071784
19:00+17nnw244858 0.0 1007385
22:00+11wnw11655 0.0 100810